COSMOS 2300

Satellite information

Favourite Embed

Satellite Type and Status

PAYLOADIN ORBIT

Key statistics

Satellite COSMOS 2300 at a glance.

Uptime

11269

Days in orbit

Revolutions

≈ 12.6

Per day

Orbit

LEO

Low Earth Orbit

Inclination

82.6

Latest

Satellite identification and parameters

Extended collection of information and parameters for COSMOS 2300.

Object identification

Identified? True

Debris? False

Object name: COSMOS 2300

International designator: 1994-086B

Object number (NORAD): 23442

Object ID (CCSDS): 23442

Country: COMMONWEALTH OF INDEPENDENT STATES (CIS)

Current information (Y/N): Y

RCS size: LARGE

Orbital parameters

Period: 114.032 minutes

Inclination: 82.5598 deg

SMA: 7789.545 km

Apoapsis: 1413.621 km

Periapsis: 1409.199 km

RAAN: 89.3951 deg

Eccentricy: 0.00028385

Argument of periapsis: 53.5599 deg

Mean anomaly: 317.9343 deg

Mean motion: 12.62800106 rev/day

Mean motion (dot): 0.00000055 rev/day2

B* drag term: 0.00024800951 1/REarth

Two-line elements (TLE)

Creation date: Nov. 1, 2025, 7:40 p.m.

Reference frame: TEME

Reference center: EARTH

Epoch: Nov. 1, 2025, 3:14 p.m. UTC

TLE line 0: 0 COSMOS 2300

TLE line 1: 1 23442U 94086B 25305.63506164 .00000055 00000-0 24801-3 0 9996

TLE line 2: 2 23442 82.5598 89.3951 0002839 53.5599 317.9343 12.62800106421875

Live tracking on map

Real-time ground track for satellite COSMOS 2300.

In-orbit conjunctions

There are no conjunctions computed for COSMOS 2300, at the moment. Check back to stay up to date, as we update our databases every day.

Go to all conjunctions

Associated space launch

Second generation store-dump military communications satellites

COSMOS 2300 was lifted into orbit during the mission ‘Tsiklon-3 | Strela-3 107 to 112’, on board a Tsiklon-3 space rocket.

The launch took place on Dec. 26, 1994, 10:26 p.m. from 32/2.

For more information about the launch, click the button.

Launch to space Tsiklon-3 | Strela-3 107 to 112
Tsiklon-3 | Strela-3 107 to 112

Agency: N/A

Status: Launch Successful

Launch date: Dec. 26, 1994, 10:26 p.m. UTC

Rocket: Tsiklon-3

Launch pad: 32/2

Location: Plesetsk Cosmodrome, Russian Federation

...

Latest news about this satellite

There are no fresh news available about this satellite. Check back as we update our databases every day.


Newsletter sign-up

Weekly statistics, charts and insights to help you stay on top of the space industry.